Regional Weather Roundup
Issued by NWS Sioux Falls, SD

Home | Current Version | Previous Version | Graphics & Text | Print | Product List | Glossary On
Versions: 1 2 3 4 5 6 7 8 9 10 11 12 13 14 15 16 17 18 19 20 21 22 23 24 25 26 27 28 29 30 31 32 33 34 35 36 37 38 39 40 41 42 43 44 45 46 47 48 49 50
000
ASUS43 KFSD 282002
RWRFSD

WEATHER ROUNDUP FOR SE SOUTH DAKOTA/SW MINNESOTA/NW IOWA
NATIONAL WEATHER SERVICE SIOUX FALLS SD
200 PM CST FRI NOV 28 2014

NOTE: "FAIR" INDICATES FEW OR NO CLOUDS BELOW 12,000 FEET WITH NO
SIGNIFICANT WEATHER AND OR OBSTRUCTIONS TO VISIBILITY.


SDZ038>040-050-052>070-282100-
SOUTHEAST SOUTH DAKOTA

CITY           SKY/WX    TMP DP  RH WIND       PRES   REMARKS
CHAMBERLAIN    NOT AVBL
HURON          MOSUNNY   37  24  59 NW3       29.67F
MADISON        FAIR      34  28  80 SE14      29.65F WCI  24
MITCHELL       MOSUNNY   40  27  59 SE10      29.66F
SIOUX FALLS    PTSUNNY   32  26  78 E10       29.68F WCI  24
WINNER         FAIR      56  30  37 W9        29.63F
YANKTON        SUNNY     43  28  56 E10       29.65F
$$

MNZ071-072-080-081-089-090-097-098-282100-
SOUTHWEST MINNESOTA

CITY           SKY/WX    TMP DP  RH WIND       PRES   REMARKS
FAIRMONT       PTSUNNY   25  19  80 SE10      29.78F WCI  15
JACKSON        MOSUNNY   27  21  80 SE10      29.74F WCI  17
LUVERNE        PTSUNNY   32  27  80 SE9       29.71F WCI  24
MARSHALL       PTSUNNY   21  14  73 E9        29.75F WCI  11
MONTEVIDEO     PTSUNNY   18  16  93 S9        29.79F WCI   6
PIPESTONE      PTSUNNY   34  27  75 SE9       29.67F WCI  26
REDWOOD FALLS  PTSUNNY   21  16  81 SE9       29.78F WCI  11
TRACY          PTSUNNY   26  20  80 E7        29.75F WCI  18
WINDOM         PTSUNNY   25  19  80 SE8       29.75F WCI  16
WORTHINGTON    MOSUNNY   28  25  86 E10       29.73F WCI  19
$$

IAZ001>003-012>014-020>022-031-032-NEZ013-014-SDZ071-282100-
NORTHWEST IOWA

CITY           SKY/WX    TMP DP  RH WIND       PRES   REMARKS
DENISON        SUNNY     43  32  65 S10       29.71F
ESTHERVILLE    MOSUNNY   24  21  88 SE12      29.75F WCI  13
SIOUX CITY     SUNNY     46  30  53 SE12      29.69F
SPENCER        PTSUNNY   30  24  78 SE12      29.74F WCI  20
$$

ABBREVIATIONS USED IN REMARKS
   TC - TEMPERATURE IN CELSIUS
  WCI - WIND CHILL INDEX
   HX - HEAT INDEX
  VSB - VISIBILITY




USA.gov is the U.S. government's official web portal to all federal, state and local government web resources and services.